Location: Bayshore Village Mobile Home Park
(26.6945°N, 81.8642°W)
Time: 01:14:26
(UTC+00:00)

Cosmos 2298 Rocket - Pass Details

Date: 17 June 2021
Orbit: 775 x 784 km, 74.0° (Epoch: 05 August)

Event Time Altitude Azimuth Distance (km) Brightness Sun altitude
Rises 09:13:10 0° 336° (NNW) 3,268 7.4 -16.1°
Reaches altitude 10° 09:15:38 10° 331° (NNW) 2,338 6.6 -15.7°
Maximum altitude 09:20:41 46° 259° (WSW) 1,037 4.3 -14.8°
Drops below altitude 10° 09:25:45 10° 186° (S) 2,331 6.1 -13.9°
Enters shadow 09:27:16 - 182° (S) 2,901 6.6 -13.6°
